| time (UTC) | temp C | wind direction | speed KPH | gust KPH | rain 1hr cm | rain 24hr cm | rain mn cm | humidity % | barometer mb |
| 20260506035117 | 18 | 360 | 6.4 | 25.7 | 0.00 | 0.00 | 0.00 | 76 | 1010.6 |
| 20260506034615 | 18 | 5 | 9.7 | 25.7 | 0.00 | 0.00 | 0.00 | 76 | 1010.2 |
| 20260506034114 | 18 | 9 | 16.1 | 22.5 | 0.00 | 0.00 | 0.00 | 76 | 1010.2 |
| 20260506033615 | 18 | 10 | 6.4 | 22.5 | 0.00 | 0.00 | 0.00 | 76 | 1010.0 |
| 20260506033114 | 18 | 9 | 8.0 | 24.1 | 0.00 | 0.00 | 0.00 | 76 | 1009.8 |
| 20260506032617 | 18 | 5 | 9.7 | 25.7 | 0.00 | 0.00 | 0.00 | 75 | 1009.8 |
| 20260506032115 | 18 | 5 | 17.7 | 25.7 | 0.00 | 0.00 | 0.00 | 75 | 1009.8 |
| 20260506031615 | 19 | 33 | 14.5 | 27.4 | 0.00 | 0.00 | 0.00 | 75 | 1009.7 |
| 20260506031115 | 19 | 10 | 11.3 | 27.4 | 0.00 | 0.00 | 0.00 | 75 | 1009.6 |
| 20260506030614 | 19 | 32 | 16.1 | 27.4 | 0.00 | 0.00 | 0.00 | 75 | 1009.6 |
| 20260506030115 | 20 | 29 | 8.0 | 27.4 | 0.00 | 0.00 | 0.00 | 75 | 1009.6 |
| 20260506025613 | 20 | 35 | 17.7 | 22.5 | 0.00 | 0.00 | 0.00 | 74 | 1009.5 |
| 20260506025115 | 20 | 11 | 11.3 | 22.5 | 0.00 | 0.00 | 0.00 | 74 | 1009.3 |
| 20260506024615 | 20 | 30 | 8.0 | 22.5 | 0.00 | 0.00 | 0.00 | 73 | 1009.1 |
| 20260506024115 | 20 | 28 | 9.7 | 22.5 | 0.00 | 0.00 | 0.00 | 73 | 1009.0 |
| 20260506023613 | 20 | 9 | 6.4 | 22.5 | 0.00 | 0.00 | 0.00 | 73 | 1008.8 |
| 20260506023113 | 20 | 9 | 8.0 | 17.7 | 0.00 | 0.00 | 0.00 | 73 | 1008.8 |
| 20260506022614 | 20 | 32 | 14.5 | 17.7 | 0.00 | 0.00 | 0.00 | 72 | 1008.8 |
| 20260506022114 | 20 | 360 | 4.8 | 19.3 | 0.00 | 0.00 | 0.00 | 72 | 1008.7 |
| 20260506021614 | 20 | 27 | 3.2 | 19.3 | 0.00 | 0.00 | 0.00 | 72 | 1008.4 |
| 20260506021112 | 20 | 10 | 12.9 | 20.9 | 0.00 | 0.00 | 0.00 | 71 | 1008.3 |
| 20260506020614 | 20 | 29 | 9.7 | 20.9 | 0.00 | 0.00 | 0.00 | 71 | 1008.4 |
| 20260506020111 | 20 | 26 | 19.3 | 20.9 | 0.00 | 0.00 | 0.00 | 71 | 1008.3 |
| 20260506015610 | 20 | 30 | 12.9 | 19.3 | 0.00 | 0.00 | 0.00 | 72 | 1008.1 |
| 20260506015113 | 21 | 5 | 8.0 | 19.3 | 0.00 | 0.00 | 0.00 | 72 | 1007.9 |
| 20260506014614 | 21 | 25 | 4.8 | 19.3 | 0.00 | 0.00 | 0.00 | 72 | 1007.6 |
| 20260506014113 | 21 | 9 | 16.1 | 17.7 | 0.00 | 0.00 | 0.00 | 72 | 1007.6 |
| 20260506013613 | 21 | 9 | 6.4 | 17.7 | 0.00 | 0.00 | 0.00 | 71 | 1007.8 |
| 20260506013114 | 21 | 9 | 11.3 | 17.7 | 0.00 | 0.00 | 0.00 | 71 | 1007.7 |
| 20260506012613 | 21 | 27 | 4.8 | 17.7 | 0.00 | 0.00 | 0.00 | 71 | 1007.4 |
| 20260506012111 | 21 | 33 | 6.4 | 17.7 | 0.00 | 0.00 | 0.00 | 71 | 1007.4 |
| 20260506011610 | 22 | 5 | 8.0 | 17.7 | 0.00 | 0.00 | 0.00 | 71 | 1007.2 |
| 20260506011111 | 22 | 10 | 3.2 | 17.7 | 0.00 | 0.00 | 0.00 | 70 | 1007.3 |
| 20260506010612 | 22 | 9 | 16.1 | 17.7 | 0.00 | 0.00 | 0.00 | 70 | 1007.2 |
| 20260506010111 | 22 | 9 | 4.8 | 19.3 | 0.00 | 0.00 | 0.00 | 69 | 1007.2 |
| 20260506005611 | 22 | 360 | 3.2 | 19.3 | 0.00 | 0.00 | 0.00 | 69 | 1007.2 |
| 20260506005115 | 22 | 9 | 8.0 | 19.3 | 0.00 | 0.00 | 0.00 | 69 | 1007.1 |
| 20260506004610 | 22 | 13 | 4.8 | 20.9 | 0.00 | 0.00 | 0.00 | 70 | 1006.7 |
| 20260506004112 | 22 | 360 | 8.0 | 24.1 | 0.00 | 0.00 | 0.00 | 69 | 1006.9 |
| 20260506003614 | 23 | 360 | 4.8 | 24.1 | 0.00 | 0.00 | 0.00 | 69 | 1006.3 |
| 20260506003111 | 23 | 11 | 11.3 | 24.1 | 0.00 | 0.00 | 0.00 | 69 | 1006.2 |
| 20260506002611 | 23 | 11 | 12.9 | 22.5 | 0.00 | 0.00 | 0.00 | 68 | 1006.5 |
| 20260506002112 | 24 | 9 | 16.1 | 17.7 | 0.00 | 0.00 | 0.00 | 68 | 1006.4 |
| 20260506001612 | 24 | 360 | 6.4 | 19.3 | 0.00 | 0.00 | 0.00 | 67 | 1006.2 |
| 20260506001114 | 25 | 44 | 8.0 | 22.5 | 0.00 | 0.00 | 0.00 | 66 | 1006.2 |
| 20260506000612 | 25 | 10 | 12.9 | 24.1 | 0.00 | 0.00 | 0.00 | 65 | 1006.2 |
| 20260506000110 | 25 | 360 | 9.7 | 25.7 | 0.00 | 0.00 | 0.00 | 64 | 1006.0 |
| 20260505235612 | 25 | 36 | 6.4 | 32.2 | 0.00 | 0.00 | 0.00 | 63 | 1006.0 |
| 20260505235113 | 25 | 9 | 14.5 | 32.2 | 0.00 | 0.00 | 0.00 | 63 | 1005.9 |
| 20260505234614 | 26 | 10 | 19.3 | 25.7 | 0.00 | 0.00 | 0.00 | 63 | 1006.0 |
| 20260505234110 | 26 | 40 | 19.3 | 25.7 | 0.00 | 0.00 | 0.00 | 62 | 1005.9 |
| 20260505233613 | 26 | 46 | 6.4 | 25.7 | 0.00 | 0.00 | 0.00 | 63 | 1005.8 |
| 20260505233111 | 26 | 10 | 12.9 | 25.7 | 0.00 | 0.00 | 0.00 | 62 | 1005.8 |
| 20260505232613 | 27 | 360 | 8.0 | 27.4 | 0.00 | 0.00 | 0.00 | 62 | 1005.7 |
| 20260505232113 | 27 | 360 | 6.4 | 30.6 | 0.00 | 0.00 | 0.00 | 61 | 1005.7 |
| 20260505231611 | 27 | 360 | 27.4 | 30.6 | 0.00 | 0.00 | 0.00 | 60 | 1005.9 |
| 20260505231111 | 27 | 342 | 19.3 | 27.4 | 0.00 | 0.00 | 0.00 | 59 | 1005.6 |
| 20260505230613 | 27 | 337 | 19.3 | 27.4 | 0.00 | 0.00 | 0.00 | 58 | 1005.5 |
| 20260505230112 | 28 | 302 | 22.5 | 27.4 | 0.00 | 0.00 | 0.00 | 59 | 1005.7 |
| 20260505225613 | 28 | 304 | 12.9 | 27.4 | 0.00 | 0.00 | 0.00 | 59 | 1005.6 |
| 20260505225114 | 28 | 309 | 12.9 | 27.4 | 0.00 | 0.00 | 0.00 | 59 | 1005.4 |
| 20260505224610 | 29 | 307 | 19.3 | 27.4 | 0.00 | 0.00 | 0.00 | 57 | 1005.2 |
| 20260505224111 | 30 | 19 | 14.5 | 25.7 | 0.00 | 0.00 | 0.00 | 57 | 1005.0 |
| 20260505223614 | 30 | 321 | 6.4 | 25.7 | 0.00 | 0.00 | 0.00 | 56 | 1005.0 |
| 20260505223113 | 30 | 60 | 9.7 | 25.7 | 0.00 | 0.00 | 0.00 | 55 | 1005.0 |
| 20260505222611 | 30 | 5 | 12.9 | 25.7 | 0.00 | 0.00 | 0.00 | 52 | 1005.0 |
| 20260505222114 | 30 | 313 | 12.9 | 24.1 | 0.00 | 0.00 | 0.00 | 51 | 1004.9 |
| 20260505221611 | 30 | 331 | 16.1 | 24.1 | 0.00 | 0.00 | 0.00 | 50 | 1004.8 |
| 20260505221113 | 30 | 346 | 14.5 | 22.5 | 0.00 | 0.00 | 0.00 | 51 | 1004.7 |
| 20260505220610 | 30 | 319 | 16.1 | 20.9 | 0.00 | 0.00 | 0.00 | 50 | 1004.7 |
| 20260505220113 | 30 | 318 | 14.5 | 24.1 | 0.00 | 0.00 | 0.00 | 50 | 1004.5 |
| 20260505215614 | 31 | 304 | 14.5 | 25.7 | 0.00 | 0.00 | 0.00 | 49 | 1004.6 |
| 20260505215112 | 31 | 301 | 19.3 | 25.7 | 0.00 | 0.00 | 0.00 | 50 | 1004.5 |
| 20260505214612 | 31 | 337 | 20.9 | 25.7 | 0.00 | 0.00 | 0.00 | 51 | 1004.6 |
| 20260505214111 | 31 | 312 | 8.0 | 24.1 | 0.00 | 0.00 | 0.00 | 50 | 1004.6 |
| 20260505213613 | 32 | 328 | 19.3 | 24.1 | 0.00 | 0.00 | 0.00 | 49 | 1004.5 |
| 20260505213111 | 32 | 281 | 9.7 | 22.5 | 0.00 | 0.00 | 0.00 | 49 | 1004.6 |
| 20260505212614 | 32 | 254 | 3.2 | 22.5 | 0.00 | 0.00 | 0.00 | 50 | 1004.5 |
| 20260505212110 | 32 | 245 | 6.4 | 22.5 | 0.00 | 0.00 | 0.00 | 49 | 1004.5 |
| 20260505211613 | 32 | 294 | 12.9 | 20.9 | 0.00 | 0.00 | 0.00 | 48 | 1004.6 |
| 20260505211112 | 33 | 236 | 4.8 | 20.9 | 0.00 | 0.00 | 0.00 | 49 | 1004.7 |
| 20260505210614 | 33 | 285 | 9.7 | 16.1 | 0.00 | 0.00 | 0.00 | 50 | 1004.8 |
| 20260505210113 | 33 | 234 | 14.5 | 16.1 | 0.00 | 0.00 | 0.00 | 50 | 1004.8 |
| 20260505205613 | 33 | 278 | 4.8 | 17.7 | 0.00 | 0.00 | 0.00 | 50 | 1004.8 |
| 20260505205114 | 32 | 219 | 4.8 | 17.7 | 0.00 | 0.00 | 0.00 | 50 | 1004.9 |
| 20260505204612 | 33 | 275 | 17.7 | 17.7 | 0.00 | 0.00 | 0.00 | 51 | 1005.0 |
| 20260505204111 | 32 | 208 | 8.0 | 19.3 | 0.00 | 0.00 | 0.00 | 52 | 1005.0 |
| 20260505203612 | 32 | 286 | 6.4 | 19.3 | 0.00 | 0.00 | 0.00 | 54 | 1005.2 |
| 20260505203112 | 32 | 236 | 16.1 | 22.5 | 0.00 | 0.00 | 0.00 | 53 | 1005.2 |
| 20260505202611 | 31 | 266 | 11.3 | 22.5 | 0.00 | 0.00 | 0.00 | 54 | 1005.1 |
| 20260505202113 | 31 | 212 | 14.5 | 22.5 | 0.00 | 0.00 | 0.00 | 55 | 1005.4 |
| 20260505201611 | 31 | 203 | 12.9 | 17.7 | 0.00 | 0.00 | 0.00 | 57 | 1005.5 |
| 20260505201113 | 31 | 209 | 12.9 | 19.3 | 0.00 | 0.00 | 0.00 | 59 | 1005.5 |
| 20260505200610 | 31 | 211 | 14.5 | 22.5 | 0.00 | 0.00 | 0.00 | 58 | 1005.4 |
| 20260505200112 | 31 | 234 | 9.7 | 27.4 | 0.00 | 0.00 | 0.00 | 58 | 1005.5 |
| 20260505195612 | 31 | 223 | 8.0 | 27.4 | 0.00 | 0.00 | 0.00 | 57 | 1005.5 |
| 20260505195114 | 31 | 217 | 9.7 | 27.4 | 0.00 | 0.00 | 0.00 | 57 | 1005.6 |
| 20260505194612 | 31 | 169 | 6.4 | 25.7 | 0.00 | 0.00 | 0.00 | 57 | 1005.5 |
| 20260505194113 | 31 | 229 | 11.3 | 24.1 | 0.00 | 0.00 | 0.00 | 58 | 1005.5 |
| 20260505193611 | 31 | 248 | 4.8 | 25.7 | 0.00 | 0.00 | 0.00 | 57 | 1005.5 |
| 20260505193111 | 31 | 247 | 12.9 | 25.7 | 0.00 | 0.00 | 0.00 | 58 | 1005.5 |
| 20260505192544 | 31 | 246 | 17.7 | 22.5 | 0.00 | 0.00 | 0.00 | 60 | 1005.8 |
| 20260505192114 | 30 | 235 | 8.0 | 22.5 | 0.00 | 0.00 | 0.00 | 61 | 1005.6 |
| 20260505191614 | 30 | 236 | 9.7 | 22.5 | 0.00 | 0.00 | 0.00 | 61 | 1005.5 |
| 20260505191114 | 30 | 215 | 20.9 | 19.3 | 0.00 | 0.00 | 0.00 | 64 | 1005.6 |
| 20260505190612 | 30 | 236 | 8.0 | 24.1 | 0.00 | 0.00 | 0.00 | 64 | 1005.5 |
| 20260505190113 | 29 | 177 | 8.0 | 24.1 | 0.00 | 0.00 | 0.00 | 65 | 1005.6 |
| 20260505185613 | 29 | 203 | 9.7 | 24.1 | 0.00 | 0.00 | 0.00 | 67 | 1005.5 |
| 20260505185114 | 28 | 179 | 9.7 | 24.1 | 0.00 | 0.00 | 0.00 | 67 | 1005.6 |
| 20260505184611 | 28 | 190 | 6.4 | 24.1 | 0.00 | 0.00 | 0.00 | 66 | 1005.6 |
| 20260505184112 | 28 | 167 | 19.3 | 24.1 | 0.00 | 0.00 | 0.00 | 68 | 1005.6 |
| 20260505183611 | 28 | 154 | 9.7 | 24.1 | 0.00 | 0.00 | 0.00 | 68 | 1005.8 |
| 20260505183113 | 28 | 225 | 11.3 | 24.1 | 0.00 | 0.00 | 0.00 | 68 | 1005.7 |
| 20260505182615 | 28 | 238 | 20.9 | 24.1 | 0.00 | 0.00 | 0.00 | 68 | 1005.8 |
| 20260505182113 | 28 | 257 | 16.1 | 27.4 | 0.00 | 0.00 | 0.00 | 69 | 1005.8 |
| 20260505181612 | 28 | 225 | 22.5 | 27.4 | 0.00 | 0.00 | 0.00 | 69 | 1005.9 |
| 20260505181115 | 28 | 213 | 8.0 | 25.7 | 0.00 | 0.00 | 0.00 | 69 | 1005.8 |
| 20260505180613 | 27 | 185 | 12.9 | 32.2 | 0.00 | 0.00 | 0.00 | 70 | 1005.9 |
| 20260505180111 | 27 | 209 | 9.7 | 32.2 | 0.00 | 0.00 | 0.00 | 70 | 1005.9 |
| 20260505175613 | 27 | 249 | 6.4 | 30.6 | 0.00 | 0.00 | 0.00 | 70 | 1006.0 |
| 20260505175111 | 27 | 216 | 14.5 | 29.0 | 0.00 | 0.00 | 0.00 | 70 | 1005.9 |
| 20260505174611 | 27 | 202 | 16.1 | 27.4 | 0.00 | 0.00 | 0.00 | 71 | 1005.9 |
| 20260505174111 | 27 | 219 | 14.5 | 27.4 | 0.00 | 0.00 | 0.00 | 71 | 1005.9 |
| 20260505173609 | 27 | 236 | 6.4 | 38.6 | 0.00 | 0.00 | 0.00 | 71 | 1005.9 |
| 20260505173110 | 27 | 214 | 20.9 | 38.6 | 0.00 | 0.00 | 0.00 | 71 | 1005.9 |
| 20260505172636 | 27 | 224 | 11.3 | 38.6 | 0.00 | 0.00 | 0.00 | 71 | 1005.9 |
| 20260505172136 | 27 | 192 | 14.5 | 32.2 | 0.00 | 0.00 | 0.00 | 71 | 1005.9 |
| 20260505171634 | 27 | 219 | 14.5 | 32.2 | 0.00 | 0.00 | 0.00 | 72 | 1006.0 |
| 20260505171135 | 27 | 212 | 9.7 | 30.6 | 0.00 | 0.00 | 0.00 | 72 | 1006.0 |
| 20260505170634 | 27 | 221 | 25.7 | 30.6 | 0.00 | 0.00 | 0.00 | 71 | 1005.9 |
| 20260505170135 | 27 | 242 | 8.0 | 33.8 | 0.00 | 0.00 | 0.00 | 72 | 1005.9 |
| 20260505165633 | 27 | 212 | 9.7 | 37.0 | 0.00 | 0.00 | 0.00 | 72 | 1005.9 |
| 20260505165133 | 27 | 215 | 11.3 | 37.0 | 0.00 | 0.00 | 0.00 | 71 | 1005.9 |
| 20260505164633 | 27 | 209 | 14.5 | 22.5 | 0.00 | 0.00 | 0.00 | 72 | 1005.8 |
| 20260505164134 | 27 | 175 | 11.3 | 20.9 | 0.00 | 0.00 | 0.00 | 73 | 1005.9 |
| 20260505163634 | 26 | 246 | 12.9 | 30.6 | 0.00 | 0.00 | 0.00 | 76 | 1006.0 |
| 20260505163136 | 26 | 259 | 6.4 | 33.8 | 0.00 | 0.00 | 0.00 | 75 | 1005.9 |
| 20260505162644 | 25 | 136 | 14.5 | 33.8 | 0.00 | 0.00 | 0.00 | 75 | 1005.9 |
| 20260505162134 | 26 | 246 | 17.7 | 30.6 | 0.00 | 0.00 | 0.00 | 75 | 1005.9 |
| 20260505161637 | 25 | 220 | 9.7 | 32.2 | 0.00 | 0.00 | 0.00 | 75 | 1005.9 |
| 20260505161134 | 25 | 229 | 11.3 | 35.4 | 0.00 | 0.00 | 0.00 | 75 | 1005.9 |
| 20260505160633 | 25 | 254 | 11.3 | 37.0 | 0.00 | 0.00 | 0.00 | 75 | 1005.9 |
| 20260505160132 | 25 | 227 | 14.5 | 37.0 | 0.00 | 0.00 | 0.00 | 75 | 1005.8 |
| 20260505153133 | 24 | 230 | 12.9 | 37.0 | 0.00 | 0.00 | 0.00 | 78 | 1005.6 |
| 20260505152635 | 24 | 190 | 6.4 | 35.4 | 0.00 | 0.00 | 0.00 | 78 | 1005.6 |
| 20260505152133 | 24 | 195 | 16.1 | 30.6 | 0.00 | 0.00 | 0.00 | 78 | 1005.6 |
| 20260505151632 | 24 | 203 | 14.5 | 30.6 | 0.00 | 0.00 | 0.00 | 79 | 1005.7 |
| 20260505151131 | 24 | 219 | 14.5 | 33.8 | 0.00 | 0.00 | 0.00 | 79 | 1005.6 |
| 20260505150630 | 23 | 211 | 16.1 | 37.0 | 0.00 | 0.00 | 0.00 | 80 | 1005.6 |
| 20260505150133 | 23 | 182 | 8.0 | 37.0 | 0.00 | 0.00 | 0.00 | 80 | 1005.7 |
| 20260505140630 | 23 | 209 | 16.1 | 35.4 | 0.00 | 0.00 | 0.00 | 82 | 1005.5 |
| 20260505140129 | 23 | 40 | 19.3 | 35.4 | 0.00 | 0.00 | 0.00 | 82 | 1005.5 |
| 20260505130129 | 21 | 29 | 29.0 | 33.8 | 0.00 | 0.00 | 0.00 | 86 | 1005.1 |
| 20260505124627 | 21 | 24 | 19.3 | 29.0 | 0.00 | 0.00 | 0.00 | 87 | 1005.0 |
| 20260505124128 | 21 | 23 | 12.9 | 25.7 | 0.00 | 0.00 | 0.00 | 87 | 1005.0 |
| 20260505123628 | 21 | 23 | 12.9 | 25.7 | 0.00 | 0.00 | 0.00 | 87 | 1004.9 |
| 20260505123127 | 21 | 24 | 9.7 | 22.5 | 0.00 | 0.00 | 0.00 | 87 | 1005.0 |
| 20260505122628 | 21 | 22 | 9.7 | 25.7 | 0.00 | 0.00 | 0.00 | 87 | 1004.9 |
| 20260505122128 | 21 | 24 | 6.4 | 30.6 | 0.00 | 0.00 | 0.00 | 87 | 1004.8 |
| 20260505121628 | 21 | 24 | 12.9 | 33.8 | 0.00 | 0.00 | 0.00 | 87 | 1004.8 |
| 20260505121125 | 21 | 23 | 16.1 | 33.8 | 0.00 | 0.00 | 0.00 | 87 | 1004.6 |
| 20260505120626 | 21 | 22 | 12.9 | 33.8 | 0.00 | 0.00 | 0.00 | 87 | 1004.6 |
| 20260505120127 | 21 | 23 | 22.5 | 35.4 | 0.00 | 0.00 | 0.00 | 87 | 1004.4 |
| 20260505115626 | 21 | 22 | 20.9 | 35.4 | 0.00 | 0.00 | 0.00 | 87 | 1004.4 |
| 20260505115125 | 21 | 21 | 8.0 | 29.0 | 0.00 | 0.00 | 0.00 | 87 | 1004.5 |
| 20260505114625 | 21 | 23 | 24.1 | 32.2 | 0.00 | 0.00 | 0.00 | 87 | 1004.5 |
| 20260505114125 | 21 | 24 | 17.7 | 32.2 | 0.00 | 0.00 | 0.00 | 87 | 1004.3 |
| 20260505113625 | 21 | 22 | 12.9 | 29.0 | 0.00 | 0.00 | 0.00 | 87 | 1004.3 |
| 20260505113126 | 21 | 24 | 4.8 | 25.7 | 0.00 | 0.00 | 0.00 | 87 | 1004.3 |
| 20260505112627 | 21 | 20 | 12.9 | 30.6 | 0.00 | 0.00 | 0.00 | 87 | 1004.3 |
| 20260505112127 | 21 | 24 | 9.7 | 33.8 | 0.00 | 0.00 | 0.00 | 87 | 1004.2 |
| 20260505111624 | 21 | 21 | 8.0 | 33.8 | 0.00 | 0.00 | 0.00 | 87 | 1004.3 |
| 20260505111127 | 21 | 21 | 19.3 | 33.8 | 0.00 | 0.00 | 0.00 | 87 | 1004.2 |
| 20260505110625 | 21 | 21 | 32.2 | 29.0 | 0.00 | 0.00 | 0.00 | 87 | 1004.3 |
| 20260505110126 | 21 | 19 | 19.3 | 35.4 | 0.00 | 0.00 | 0.00 | 87 | 1004.2 |
| 20260505102125 | 21 | 22 | 16.1 | 40.2 | 0.00 | 0.00 | 0.00 | 86 | 1004.2 |
| 20260505101624 | 21 | 19 | 19.3 | 40.2 | 0.00 | 0.00 | 0.00 | 86 | 1004.3 |
| 20260505101124 | 21 | 20 | 17.7 | 40.2 | 0.00 | 0.00 | 0.00 | 86 | 1004.3 |
| 20260505100625 | 21 | 19 | 16.1 | 37.0 | 0.00 | 0.00 | 0.00 | 86 | 1004.4 |
| 20260505100126 | 21 | 360 | 3.2 | 37.0 | 0.00 | 0.00 | 0.00 | 86 | 1004.3 |
| 20260505095625 | 21 | 20 | 11.3 | 35.4 | 0.00 | 0.00 | 0.00 | 86 | 1004.4 |
| 20260505095124 | 21 | 24 | 22.5 | 35.4 | 0.00 | 0.00 | 0.00 | 86 | 1004.5 |
| 20260505094626 | 21 | 19 | 14.5 | 35.4 | 0.00 | 0.00 | 0.00 | 86 | 1004.5 |
| 20260505094124 | 21 | 22 | 9.7 | 38.6 | 0.00 | 0.00 | 0.00 | 86 | 1004.2 |
| 20260505093624 | 21 | 22 | 17.7 | 38.6 | 0.00 | 0.00 | 0.00 | 85 | 1004.3 |
| 20260505093123 | 21 | 19 | 14.5 | 35.4 | 0.00 | 0.00 | 0.00 | 85 | 1004.4 |
| 20260505092623 | 21 | 21 | 20.9 | 35.4 | 0.00 | 0.00 | 0.00 | 85 | 1004.5 |
| 20260505092125 | 21 | 23 | 20.9 | 35.4 | 0.00 | 0.00 | 0.00 | 85 | 1004.6 |
| 20260505091623 | 21 | 19 | 17.7 | 43.5 | 0.00 | 0.00 | 0.00 | 84 | 1004.5 |
| 20260505091123 | 21 | 22 | 12.9 | 43.5 | 0.00 | 0.00 | 0.00 | 84 | 1004.7 |
| 20260505090624 | 21 | 20 | 17.7 | 40.2 | 0.00 | 0.00 | 0.00 | 84 | 1004.7 |
| 20260505090126 | 22 | 24 | 16.1 | 40.2 | 0.00 | 0.00 | 0.00 | 84 | 1004.8 |
| 20260505085623 | 22 | 22 | 14.5 | 40.2 | 0.00 | 0.00 | 0.00 | 84 | 1004.8 |
| 20260505085121 | 22 | 22 | 19.3 | 38.6 | 0.00 | 0.00 | 0.00 | 84 | 1004.7 |
| 20260505084622 | 22 | 26 | 14.5 | 38.6 | 0.00 | 0.00 | 0.00 | 83 | 1004.7 |
| 20260505084122 | 22 | 24 | 16.1 | 37.0 | 0.00 | 0.00 | 0.00 | 83 | 1004.9 |
| 20260505083621 | 22 | 23 | 9.7 | 40.2 | 0.00 | 0.00 | 0.00 | 83 | 1005.0 |
| 20260505083121 | 22 | 22 | 14.5 | 40.2 | 0.00 | 0.00 | 0.00 | 83 | 1004.9 |
| 20260505082621 | 22 | 22 | 30.6 | 40.2 | 0.00 | 0.00 | 0.00 | 83 | 1005.0 |
| 20260505082123 | 22 | 24 | 17.7 | 33.8 | 0.00 | 0.00 | 0.00 | 82 | 1005.0 |
| 20260505081623 | 22 | 22 | 12.9 | 37.0 | 0.00 | 0.00 | 0.00 | 82 | 1004.8 |
| 20260505081124 | 22 | 24 | 17.7 | 40.2 | 0.00 | 0.00 | 0.00 | 82 | 1004.8 |
| 20260505080622 | 22 | 19 | 33.8 | 40.2 | 0.00 | 0.00 | 0.00 | 81 | 1004.9 |
| 20260505080122 | 22 | 27 | 6.4 | 37.0 | 0.00 | 0.00 | 0.00 | 81 | 1004.9 |
| 20260505075621 | 22 | 21 | 19.3 | 37.0 | 0.00 | 0.00 | 0.00 | 81 | 1004.9 |
| 20260505075122 | 22 | 22 | 24.1 | 40.2 | 0.00 | 0.00 | 0.00 | 80 | 1005.0 |
| 20260505074621 | 22 | 21 | 19.3 | 40.2 | 0.00 | 0.00 | 0.00 | 80 | 1005.0 |
| 20260505074121 | 22 | 19 | 14.5 | 35.4 | 0.00 | 0.00 | 0.00 | 80 | 1005.2 |
| 20260505073621 | 22 | 20 | 20.9 | 35.4 | 0.00 | 0.00 | 0.00 | 79 | 1005.2 |
| 20260505073120 | 22 | 17 | 14.5 | 30.6 | 0.00 | 0.00 | 0.00 | 79 | 1005.4 |
| 20260505072621 | 22 | 18 | 16.1 | 32.2 | 0.00 | 0.00 | 0.00 | 78 | 1005.4 |
| 20260505072119 | 22 | 19 | 11.3 | 37.0 | 0.00 | 0.00 | 0.00 | 78 | 1005.5 |
| 20260505071619 | 22 | 24 | 14.5 | 37.0 | 0.00 | 0.00 | 0.00 | 78 | 1005.6 |
| 20260505071120 | 23 | 29 | 9.7 | 37.0 | 0.00 | 0.00 | 0.00 | 77 | 1005.8 |
| 20260505070620 | 23 | 21 | 17.7 | 33.8 | 0.00 | 0.00 | 0.00 | 77 | 1005.8 |
| 20260505070121 | 23 | 21 | 12.9 | 30.6 | 0.00 | 0.00 | 0.00 | 77 | 1005.8 |
| 20260505065620 | 23 | 22 | 19.3 | 30.6 | 0.00 | 0.00 | 0.00 | 77 | 1006.0 |
| 20260505065119 | 23 | 24 | 16.1 | 32.2 | 0.00 | 0.00 | 0.00 | 76 | 1006.0 |
| 20260505064620 | 23 | 19 | 11.3 | 32.2 | 0.00 | 0.00 | 0.00 | 76 | 1006.1 |
| 20260505064120 | 23 | 21 | 14.5 | 37.0 | 0.00 | 0.00 | 0.00 | 76 | 1006.2 |
| 20260505063622 | 23 | 22 | 20.9 | 37.0 | 0.00 | 0.00 | 0.00 | 75 | 1006.0 |
| 20260505063120 | 23 | 20 | 24.1 | 33.8 | 0.00 | 0.00 | 0.00 | 75 | 1006.1 |
| 20260505062621 | 23 | 22 | 24.1 | 30.6 | 0.00 | 0.00 | 0.00 | 75 | 1006.2 |
| 20260505062119 | 23 | 19 | 16.1 | 35.4 | 0.00 | 0.00 | 0.00 | 74 | 1006.2 |
| 20260505061618 | 23 | 24 | 8.0 | 35.4 | 0.00 | 0.00 | 0.00 | 74 | 1006.2 |
| 20260505061118 | 23 | 22 | 17.7 | 33.8 | 0.00 | 0.00 | 0.00 | 73 | 1006.1 |
| 20260505060618 | 23 | 24 | 12.9 | 33.8 | 0.00 | 0.00 | 0.00 | 73 | 1006.2 |
| 20260505060118 | 23 | 26 | 24.1 | 33.8 | 0.00 | 0.00 | 0.00 | 73 | 1006.2 |
| 20260505055620 | 23 | 26 | 9.7 | 32.2 | 0.00 | 0.00 | 0.00 | 72 | 1006.3 |
| 20260505055119 | 24 | 30 | 22.5 | 32.2 | 0.00 | 0.00 | 0.00 | 72 | 1006.3 |
| 20260505054618 | 24 | 28 | 20.9 | 37.0 | 0.00 | 0.00 | 0.00 | 71 | 1006.2 |
| 20260505054118 | 24 | 26 | 14.5 | 37.0 | 0.00 | 0.00 | 0.00 | 71 | 1006.1 |
| 20260505053618 | 24 | 27 | 14.5 | 40.2 | 0.00 | 0.00 | 0.00 | 71 | 1006.1 |
| 20260505053118 | 24 | 32 | 17.7 | 40.2 | 0.00 | 0.00 | 0.00 | 71 | 1006.0 |
| 20260505052619 | 24 | 32 | 19.3 | 38.6 | 0.00 | 0.00 | 0.00 | 71 | 1006.2 |
| 20260505052118 | 24 | 34 | 24.1 | 30.6 | 0.00 | 0.00 | 0.00 | 71 | 1006.2 |
| 20260505051619 | 24 | 34 | 16.1 | 40.2 | 0.00 | 0.00 | 0.00 | 71 | 1006.1 |
| 20260505051117 | 24 | 31 | 16.1 | 40.2 | 0.00 | 0.00 | 0.00 | 71 | 1006.1 |
| 20260505050617 | 24 | 26 | 27.4 | 37.0 | 0.00 | 0.00 | 0.00 | 71 | 1006.2 |
| 20260505050117 | 24 | 30 | 14.5 | 32.2 | 0.00 | 0.00 | 0.00 | 71 | 1006.3 |
| 20260505041617 | 23 | 21 | 20.9 | 30.6 | 0.00 | 0.00 | 0.00 | 73 | 1006.5 |
| 20260505041116 | 23 | 28 | 12.9 | 30.6 | 0.00 | 0.00 | 0.00 | 73 | 1006.6 |
| 20260505040617 | 23 | 22 | 17.7 | 29.0 | 0.00 | 0.00 | 0.00 | 73 | 1006.5 |
| 20260505040115 | 23 | 21 | 17.7 | 30.6 | 0.00 | 0.00 | 0.00 | 73 | 1006.5 |
| 20260505035615 | 23 | 23 | 12.9 | 33.8 | 0.00 | 0.00 | 0.00 | 73 | 1006.6 |